Flag for Mexico Weather past 2 weeks in Mexicali, Baja California, Mexico

Now
49 °F

Clear.


Feels Like: 46 °F
Forecast: 47 / 71 °F
Wind: 7 mph from West

Location: Imperial County Airport

Current Time: Dec 21, 2014 at 12:34:43 AM

Latest Report: Dec 20, 2014 at 11:53 PM


Visibility: 10 mi

Pressure: 30.11 "Hg

Humidity: 80%

Dew point: 43 °F

Location of MexicaliLocation

Historic Weather in Mexicali — Graph

°F

Mexicali temperature yesterday

Maximum temperature yesterday: 65 °F (at 12:53 PM)
Minimum temperature yesterday: 43 °F (at 5:53 AM)
Average temperature yesterday: 53 °F

Past Weeks' High & Low Weather Summary

 TemperatureHumidityPressure
High80 °F (Dec 9, 2:53 PM)100% (Dec 12, 12:53 AM)30.25 "Hg (Dec 12, 12:53 AM)
Low43 °F (Dec 19, 4:53 AM)22% (Dec 9, 2:53 PM)29.88 "Hg (Dec 11, 3:53 PM)
Average58 °F64%30.05 "Hg
* Reported Dec 5 10:53 PM — Dec 20 10:53 PM, Mexicali, Weather by CustomWeather, © 2014

Note: Actual official high and low records may vary slightly from our data, if they occured in-between our weather recording intervals... More about our weather records

Advertising

Mexicali weather history for previous 24 hours

 ConditionsComfort  
Time TempWeatherWind HumidityBarometerVisibility
10:53 PM
Dec 20
49 °FClear.No wind77%30.11 "Hg10 mi
9:53 PM48 °FClear.5 mph83%30.13 "Hg10 mi
8:53 PM50 °FClear.3 mph77%30.11 "Hg10 mi
7:53 PM54 °FClear.No wind69%30.12 "Hg10 mi
6:53 PM58 °FClear.No wind58%30.10 "Hg10 mi
5:53 PM59 °FClear.3 mph58%30.09 "Hg10 mi
4:53 PM60 °FClear.5 mph58%30.07 "Hg10 mi
3:53 PM64 °FSunny.No wind45%30.06 "Hg10 mi
2:53 PM65 °FSunny.3 mph44%30.07 "Hg10 mi
1:53 PM65 °FSunny.5 mph45%30.07 "Hg10 mi
12:53 PM65 °FSunny.No wind44%30.09 "Hg10 mi
11:53 AM63 °FSunny.No wind52%30.12 "Hg10 mi
10:53 AM61 °FSunny.3 mph56%30.15 "Hg10 mi
9:53 AM57 °FSunny.3 mph64%30.17 "Hg10 mi
8:53 AM49 °FSunny.3 mph80%30.16 "Hg10 mi
7:53 AM46 °FSunny.6 mph83%30.14 "Hg10 mi
6:53 AM43 °FSunny.7 mph82%30.14 "Hg10 mi
5:53 AM43 °FClear.7 mph86%30.11 "Hg10 mi
4:53 AM44 °FClear.No wind89%30.11 "Hg10 mi
3:53 AM44 °FClear.5 mph82%30.11 "Hg10 mi
2:53 AM45 °FClear.No wind80%30.12 "Hg10 mi
1:53 AM45 °FClear.5 mph82%30.14 "Hg10 mi
12:53 AM45 °FClear.3 mph80%30.14 "Hg10 mi
Weather by CustomWeather, © 2014

See weather overviewHow to use our weather pages